Regional Weather Roundup
Issued by NWS

Home | Current Version | Previous Version | Text Only | Print | Product List | Glossary Off
Versions: 1 2 3 4 5 6 7 8 9 10 11 12 13 14 15 16 17 18 19 20 21 22 23 24 25 26 27 28 29 30 31 32 33 34 35 36 37 38 39 40 41 42 43 44 45 46 47 48 49 50

000
ASUS44 KMEG 111510
RWRTN
TENNESSEE HOURLY STATE WEATHER ROUNDUP
NATIONAL WEATHER SERVICE MEMPHIS TN
1000 AM CDT FRI JUL 11 2014

TNZ002-004-019-021-049-052-054-088>092-111600-
WEST TENNESSEE

CITY           SKY/WX    TMP DP  RH WIND       PRES   REMARKS
MEMPHIS INTL   CLOUDY    83  64  52 S5        30.18R
NWS MEMPHIS      N/A     85 N/A N/A MISG        N/A
JACKSON        SUNNY     83  68  60 CALM      30.18S
DYERSBURG      MOSUNNY   82  64  54 CALM      30.19R
UNION CITY     MOSUNNY   81  68  65 SE3       30.17S
PARIS          SUNNY     80  65  60 SE5       30.19S
LEXINGTON      SUNNY     81  70  69 CALM      30.18S
SILERTON         N/A     86  67  52 E2          N/A
$$

TNZ008-025-027-028-033-062-065-066-111600-
NORTH MIDDLE TENNESSEE

CITY           SKY/WX    TMP DP  RH WIND       PRES   REMARKS
NASHVILLE      MOSUNNY   84  65  52 SE3       30.20R
DICKSON        SUNNY     81  66  61 CALM      30.20S
CLARKSVILLE    SUNNY     81  65  58 CALM      30.19S
LEBANON        SUNNY     82  64  54 CALM      30.18S
SMYRNA         SUNNY     87  67  51 CALM      30.20S HX  90
MURFREESBORO   SUNNY     81  66  60 NE3       30.19R
COOKEVILLE     SUNNY     82  70  65 CALM      30.21S
LIVINGSTON     SUNNY     79  64  59 VRB3      30.23R
GALLATIN       SUNNY     83  66  56 SE5       30.20S
CROSSVILLE     SUNNY     79  63  57 VRB6      30.26R
$$

TNZ061-075-076-078-094-096-097-111600-
SOUTH MIDDLE TENNESSEE

CITY           SKY/WX    TMP DP  RH WIND       PRES   REMARKS
LEWISBURG      SUNNY     81  66  60 CALM      30.19R
TULLAHOMA      SUNNY     81  64  57 CALM      30.22R
WINCHESTER     SUNNY     82  66  57 CALM      30.20S
MCMINNVILLE    SUNNY     81  70  69 NE3       30.21S
COLUMBIA       SUNNY     82  70  65 CALM      30.18S
$$

TNZ017-018-042-046-047-111600-
NORTHEAST TENNESSEE

CITY           SKY/WX    TMP DP  RH WIND       PRES   REMARKS
TRI CITIES     SUNNY     78  64  61 VRB3      30.24S
ELIZABETHTON   SUNNY     75  64  69 CALM      30.24R
$$

TNZ012-013-036-069-073-074-111600-
CENTRAL EAST TENNESSEE

CITY           SKY/WX    TMP DP  RH WIND       PRES   REMARKS
KNOXVILLE      MOSUNNY   81  67  62 VRB6      30.20S
OAK RIDGE      SUNNY     81  67  62 CALM      30.22S
$$

TNZ083-085-099-111600-
SOUTHEAST TENNESSEE

CITY           SKY/WX    TMP DP  RH WIND       PRES   REMARKS
CHATTANOOGA    PTSUNNY   80  66  62 N6        30.20R
$$

SKY/WX REPORTED AS FAIR MEANS FEW OR NO CLOUDS BELOW
12 THOUSAND FEET.




USA.gov is the U.S. government's official web portal to all federal, state and local government web resources and services.